EHI
0 0 0 0 0 0 0 0 0 0 0 0 0 0 0 0 0 0 0 0 0 0 0 0 0 0 0 0 0 0 0 0 0 0 0 0 0 0
0 0 0 0 0 0 0 0 0 0 0 0 0 0 0 0 0 0 0 0 0 0 0 0 0 0 0 0 0 0 0 0 0 0 0 0 0 0
0 0 0 0 0 0 0 0 0 0 0 0 0 0 0 0 0 0 0 0 0 0 0 0 0 0 0 0 0 0 0 0 0 0 0 0 0 0
0 0 0 0 0 0 0 0 0 0 0 0 0 0 0 0 0 0 0 0 0 0 0 0 0 0 0 0 0 0 0 0 0 0 0 0 0 0
0 0 0 0 0 0 0 0 0 0 0 0 0 0 0 0 0 0 0 0 0 0 0 0 0 0 0 0 0 0 0 0 0 0 0 0 0 0
0 0 0 0 0 0 0 0 0 0 0 0 0 0 0 0 0 0 0 0 0 0 0 0 0 0 0 0 0 0 0 0 0 0 0 0 0 0
0 0 0 0 0 0 0 0 0 0 0 0 0 0 0 0 0 0 0 0 0 0 0 0 0 0 0 0 0 0 0 0 0 0 0 0 0 0
0 0 0 0 0 0 0 0 0 0 0 0 0 0 0 0 0 0 0 0 0 0 0 0 0 0 0 0 0 0 0 0 0 0 0 0 0 0
0 0 0 0 0 0 0 0 0 0 0 0 0 0 0 0 0 0 0 0 0 0 0 0 0 0 0 0 0 0 0 0 0 0 0 0 0 0
0 0 0 0 0 0 0 0 0 0 0 0 0 0 0 0 0 0 0 0 0 0 0 0 0 0 0 0 0 0 0 0 0 0 0 0 0 0
0 0 0 0 0 0 0 0 0 0 0 0 0 0 0 0 0 0 0 0 0 0 0 0 0 0 0 0 0 0 0 0 0 0 0 0 0 0
0 0 0 0 0 0 0 0 0 0 0 0 0 0 0 0 0 0 0 0 0 0 0 0 0 0 0 0 0 0 0 0 0 0 0 0 0 0
0 0 0 0 0 0 0 0 0 0 0 0 0 0 0 0 0 0 0 0 0 0 0 0 0 0 0 0 0 0 0 0 0 0 0 0 0 0
0 0 0 0 0 0 0 0 0 0 0 0 0 0 0 0 0 0 0 0 0 0 0 0 0 0 0 0 0 0 0 0 0 0 0 0 0 0
0 0 0 0 0 0 0 0 0 0 0 0 0 0 0 0 0 0 0 0 0 0 0 0 0 0 0 0 0 0 0 0 0 0 0 0 0 0
0 0 0 0 0 0 0 0 0 0 0 0 0 0 0 0 0 0 0 0 0 0 0 0 0 0 0 0 0 0 0 0 0 0 0 0 0 0
0 0 0 0 0 0 0 0 0 0 0 0 0 0 0 0 0 0 0 0 0 0 0 0 0 0 0 0 0 0 0 0 0 0 0 0 0 0
0 0 0 0 0 0 0 0 0 0 0 0 0 0 0 0 0 0 0 0 0 0 0 0 0 0 0 0 0 0 0 0 0 0 0 0 0 0
0 0 0 0 0 0 0 0 0 0 0 0 0 0 0 0 0 0 0 0 0 0 0 0 0 0 0 0 0 0 0 0 0 0 0 0 0 0
0 0 0 0 0 0 0 0 0 0 0 0 0 0 0 0 0 0 0 0 0 0 0 0 0 0 0 0 0 0 0 0 0 0 0 0 0 0
0 0 0 0 0 0 0 0 0 0 0 0 0 0 0 0 0 0 0 0 0 0 0 0 0 0 0 0 0 0 0 0 0 0 0 0 0 0
0 0 0 0 0 0 0 0 0 0 0 0 0 0 0 0 0 0 0 0 0 0 0 0 0 0 0 0 0 0 0 0 0 0 0 0 0 0
0 0 0 0 0 0 0 0 0 0 0 0 0 0 0 0 0 0 0 0 0 0 0 0 0 0 0 0 0 0 0 0 0 0 0 0 0 0
Wind_Speed
2 2 1 1 1 1 1 2 3 3 4 3 2 2 3 3 6 5 6 11 14 15 16 16 16 16 16 15 15 15 16 16 16 16 15 15 15 15
2 2 1 1 1 1 1 2 2 3 5 3 3 4 4 5 8 6 7 13 13 15 16 15 15 15 15 15 15 15 15 16 15 15 15 15 14 15
2 2 1 1 1 1 1 1 2 2 5 4 3 4 4 5 6 5 6 6 7 14 15 16 15 15 15 15 15 15 15 14 14 14 14 14 14 13
2 1 1 0 0 1 1 1 2 2 4 6 4 3 4 5 6 6 6 6 6 12 14 15 15 15 15 15 14 14 14 13 13 12 13 12 12 12
2 2 1 1 1 1 1 2 2 2 3 4 5 3 4 4 5 6 6 6 7 9 11 13 14 15 15 14 14 14 13 12 11 11 11 11 11 11
1 2 2 2 2 2 2 2 2 2 3 3 4 4 4 4 4 5 6 5 6 6 8 10 12 14 14 14 13 12 12 11 11 11 10 10 10 10
1 1 1 2 2 2 2 2 2 2 3 3 4 4 4 4 4 4 7 7 7 4 6 6 6 6 7 10 11 11 11 11 10 10 9 8 8 8
1 0 1 1 2 3 3 3 3 3 3 3 4 5 5 5 5 5 6 6 7 3 6 7 4 6 5 5 10 12 11 10 9 9 7 6 6 7
1 1 1 1 2 1 3 4 4 5 5 4 5 6 6 5 6 6 6 6 7 5 6 7 4 6 6 6 11 10 10 9 8 7 6 5 6 5
1 1 1 1 2 2 1 2 3 3 4 3 4 5 6 5 5 6 7 7 7 4 3 6 5 6 6 5 9 9 9 9 8 7 6 5 5 5
1 1 1 2 3 3 2 2 3 4 4 5 6 6 8 8 6 4 4 5 6 4 2 3 4 5 5 5 6 8 9 9 8 7 6 5 4 4
1 1 3 3 4 4 2 2 4 4 4 4 4 5 5 6 6 4 4 4 4 4 2 3 3 4 5 4 4 4 5 7 8 7 7 6 5 3
1 1 2 4 5 4 3 3 5 4 3 3 3 4 4 3 4 4 4 4 4 4 3 2 3 3 4 5 4 4 3 4 4 4 5 5 5 3
2 2 2 4 4 4 3 4 5 4 2 2 3 4 4 4 4 5 5 4 5 6 5 3 3 3 4 5 5 4 4 4 3 3 3 4 4 4
2 3 3 3 2 2 3 4 3 2 2 2 3 4 4 4 4 4 4 4 4 4 4 3 4 4 4 4 4 4 4 4 3 3 3 2 2 2
1 1 2 2 1 2 3 3 2 2 2 2 3 3 3 3 3 3 4 4 4 4 3 3 4 4 4 4 3 4 3 3 4 4 3 2 1 1
1 0 0 1 1 1 2 2 2 2 3 3 3 3 3 3 3 3 3 3 3 4 4 4 3 3 3 3 3 3 3 3 3 4 3 2 2 1
1 1 1 1 1 1 2 2 2 2 3 3 3 3 3 3 4 3 3 3 3 4 4 4 4 4 2 2 2 3 3 3 3 3 2 2 2 2
2 2 2 2 2 1 2 2 2 2 2 2 3 3 3 3 3 3 3 3 4 4 3 3 3 2 3 4 4 2 2 3 3 3 2 2 1 2
2 2 2 2 2 2 2 2 2 2 2 2 3 3 3 3 3 3 3 4 4 4 4 3 2 2 2 3 3 4 4 2 2 2 2 2 2 2
2 2 2 2 2 2 2 2 2 2 3 3 3 3 3 3 3 3 3 5 4 3 4 4 4 4 2 1 2 3 3 3 2 1 1 2 2 2
3 3 3 2 2 2 2 2 2 2 3 3 3 3 3 3 3 4 3 3 3 3 4 4 3 2 1 1 2 2 3 4 4 4 4 2 1 0
3 3 3 3 3 2 2 2 3 3 3 3 3 3 3 3 3 3 3 3 3 3 3 3 2 1 1 1 1 1 2 3 3 3 4 5 5 4
Wind_Direction
176 173 189 215 211 226 219 211 221 263 271 254 257 274 282 278 293 287 281 291 295 295 293 293 293 293 294 288 285 284 285 284 285 283 277 273 269 268
163 163 179 190 208 223 227 241 233 240 263 266 264 286 294 294 298 291 284 298 297 296 294 293 292 290 292 289 284 283 283 283 283 280 278 273 270 266
166 166 178 172 186 217 234 239 251 247 264 280 273 283 286 292 298 291 287 286 289 297 297 297 295 292 290 290 286 283 281 280 279 279 280 273 267 265
172 158 181 165 178 234 235 247 256 254 256 279 292 293 290 297 298 297 298 296 289 297 299 298 295 293 292 290 289 284 282 280 277 275 276 271 264 263
173 174 190 169 239 266 270 265 269 275 260 270 287 291 292 300 305 299 296 293 296 300 301 302 299 296 293 291 289 286 284 283 277 271 272 269 266 265
179 184 192 196 227 254 267 266 273 280 272 271 282 292 292 299 304 306 310 307 302 301 301 303 301 302 299 297 294 290 285 282 277 274 269 265 263 263
181 200 209 221 237 254 264 265 265 270 275 278 285 296 299 312 310 305 303 307 297 287 300 298 296 292 293 298 297 295 292 287 280 275 266 262 265 265
159 199 236 225 258 283 290 290 284 273 273 274 285 292 296 294 296 299 302 309 303 308 307 298 293 292 293 289 302 305 300 293 283 276 266 262 268 264
172 196 283 286 295 284 301 312 301 289 278 269 278 283 289 293 294 293 294 294 284 297 303 290 293 294 296 293 302 303 307 302 290 282 272 265 265 265
200 214 238 278 289 299 299 303 295 291 290 276 268 279 286 289 285 282 283 284 281 280 278 283 296 297 301 292 299 304 305 305 298 285 277 273 269 269
249 245 252 267 281 301 299 286 292 292 303 299 294 293 296 298 300 297 299 300 298 292 286 289 296 303 297 288 300 310 309 306 305 295 283 277 274 268
273 265 263 274 287 299 283 273 286 294 308 316 312 310 304 303 307 286 279 285 296 292 292 301 296 316 309 296 301 305 308 307 309 304 297 287 276 260
252 272 273 283 287 293 294 276 282 299 297 300 305 309 311 308 304 295 281 270 273 273 286 308 291 295 282 298 304 304 310 311 311 305 294 287 277 253
245 258 267 280 287 296 304 309 312 314 307 312 317 318 319 316 311 304 292 277 263 264 274 275 268 278 289 293 298 311 314 313 314 310 303 295 281 265
242 258 277 290 301 314 329 333 334 326 319 315 309 308 306 302 306 307 300 295 290 285 282 269 268 271 267 274 290 304 311 312 317 316 308 298 280 254
266 270 300 316 337 339 343 342 338 328 324 305 303 301 308 313 314 316 311 313 312 308 296 285 277 271 274 278 278 293 302 301 310 312 310 311 308 271
206 109 356 327 329 331 330 328 330 335 330 318 308 309 314 315 316 318 310 311 306 310 318 321 310 283 264 277 289 298 309 315 312 312 322 338 333 327
175 195 231 252 271 292 306 316 324 322 320 314 304 302 308 310 312 319 322 315 310 307 311 320 330 332 329 309 281 300 314 315 323 327 340 344 338 345
208 208 220 234 253 266 281 293 299 301 301 301 295 296 300 303 308 314 319 319 312 307 307 313 327 332 329 319 316 328 318 320 328 332 341 346 321 316
212 219 226 234 243 255 266 279 289 295 295 297 296 293 291 294 301 308 310 308 308 308 312 316 318 311 286 282 297 309 317 315 316 319 333 343 349 6
217 223 227 231 239 246 257 264 276 286 291 291 293 293 287 289 292 298 299 304 304 306 309 306 295 297 284 287 303 321 324 331 333 318 328 357 5 15
219 223 225 228 236 238 246 259 271 281 288 287 290 293 290 285 286 287 292 298 295 294 295 298 306 317 330 303 296 310 329 342 355 7 20 31 73 90
217 221 223 228 232 234 239 249 257 267 272 277 282 286 291 293 292 288 288 289 292 297 303 309 316 319 313 285 283 302 336 346 355 10 14 20 41 66